Weather in Krasnyy Yar

Russia / Tomsk District     57°08′32″N   84°30′59″E
temp.,
°C
wind,
m/s
gust,
m/s
humid.,
%
clouds,
%
prec.,
mm/h
press.,
hPa
HPBL,
m
15 may, sat
sat1501:00+9ssw31054100 0.1 1019302
04:00+11sw5145095 0.0 1016533
07:00+11wsw5136587 0.2 1016558
10:00+16wsw586050 0.3 1015662
13:00+22w5847100 0.4 10141277
16:00+23w394566 0.0 10121713
19:00+15nne7127642 1.4 1014656
22:00+10ne129295 0.8 101627
16 may, sun
sun1601:00+10ene129196 0.8 101795
04:00+6e239676 0.0 101665
07:00+8e3786100 0.0 1015271
10:00+8ne2592100 1.4 1014312
13:00+8e3795100 6.6 1012338
16:00+9ene3593100 0.4 1011381
19:00+7ene379399 4.6 1012368
22:00+6ne389439 0.0 1014377
17 may, mon
mon1701:00+3nne25966 0.0 1015128
04:00+4n249375 0.0 1017106
07:00+6nne2487100 0.0 1018186
10:00+9ne1169100 0.0 1019483
13:00+12wnw1157100 0.0 1018943
16:00+13w2455100 0.0 10171404
19:00+14wsw135989 0.0 10161082
22:00+10se3680100 0.1 1013134
18 may, tue
tue1801:00+9se3996100 7.9 1009458
04:00+10sse2797100 7.8 1006304
07:00+11nnw1397100 7.8 1005125
10:00+13nnw2387100 0.0 1005574
13:00+12nnw2493100 0.1 1006449
16:00+11n3493100 0.1 1007359
19:00+9nne3490100 0.1 1008439
22:00+7ene3794100 0.6 1008397
19 may, wed
wed1901:00+7ne3994100 0.7 1008427
04:00+7nne3992100 0.1 1008376
07:00+6nne3107791 0.1 1009406
10:00+10nne484182 0.0 10101160
13:00+12nne573183 0.0 10112108
16:00+12n5630100 0.0 10112626
19:00+11n464194 0.0 10122242
22:00+5nne27635 0.0 1013131